CZ-6A DEB

Satellite information

Favourite Embed

Satellite Type and Status

DEBRISIN ORBIT

Key statistics

Satellite CZ-6A DEB at a glance.

Uptime

335

Days in orbit

Revolutions

≈ 14.5

Per day

Orbit

LEO

Low Earth Orbit

Inclination

89.0

Latest

Satellite identification and parameters

Extended collection of information and parameters for CZ-6A DEB.

Object identification

Identified? True

Debris? True

Object name: CZ-6A DEB

International designator: 2024-140LG

Object number (NORAD): 60901

Object ID (CCSDS): 60901

Country: PEOPLES REPUBLIC OF CHINA (PRC)

Current information (Y/N): Y

RCS size: SMALL

Orbital parameters

Period: 99.139 minutes

Inclination: 88.9815 deg

SMA: 7095.629 km

Apoapsis: 772.526 km

Periapsis: 662.462 km

RAAN: 310.9723 deg

Eccentricy: 0.0077558

Argument of periapsis: 310.4466 deg

Mean anomaly: 48.9995 deg

Mean motion: 14.52500974 rev/day

Mean motion (dot): 0.0000422 rev/day2

B* drag term: 0.00099034 1/REarth

Two-line elements (TLE)

Creation date: July 6, 2025, 6:05 p.m.

Reference frame: TEME

Reference center: EARTH

Epoch: July 6, 2025, 2:29 p.m. UTC

TLE line 0: 0 CZ-6A DEB

TLE line 1: 1 60901U 24140LG 25187.60367935 .00004220 00000-0 99034-3 0 9995

TLE line 2: 2 60901 88.9815 310.9723 0077558 310.4466 48.9995 14.52500974 46650

Live tracking on map

Real-time ground track for satellite CZ-6A DEB.

In-orbit conjunctions

A list of the most updated potential collisions computed for object CZ-6A DEB.

Target Orbit TCA Probability of collision Miss distance Type
SL-8 R/B LEO 2025-03-30 06:19:35 0.0001952278 209.0 (m) ROCKET BODY
FENGYUN 1C DEB SSO 2025-01-28 18:59:19 0.0001037151 422.0 (m) DEBRIS
WESTFORD NEEDLES * HEO 2025-01-13 09:43:27 0.0001431173 633.0 (m) DEBRIS
COSMOS 858 LEO 2024-11-25 01:13:39 0.0005983858 389.0 (m) PAYLOAD
FENGYUN 1C DEB SSO 2024-10-02 06:34:23 0.0002803117 273.0 (m) DEBRIS

Associated space launch

18 Low Earth Orbit communication satellites with Ku, Q and V band payloads for the G60 constellation operated by Shanghai Spacecom Satellite Technology (SSST) with funding backed by the Shanghai local government. Initial constellation will consist of 1296 satellites by 2027 with long term plans to expand it to 12000 satellites.

CZ-6A DEB was lifted into orbit during the mission ‘Long March 6A | G60 Polar Group 01’, on board a Long March 6A space rocket.

The launch took place on Aug. 6, 2024, 6:42 a.m. from Launch Complex 9A.

For more information about the launch, click the button.

Launch to space Long March 6A | G60 Polar Group 01
Long March 6A | G60 Polar Group 01

Agency: N/A

Status: Launch Successful

Launch date: Aug. 6, 2024, 6:42 a.m. UTC

Rocket: Long March 6A

Launch pad: Launch Complex 9A

Location: Taiyuan Satellite Launch Center, People's Republic of China

...

Latest news about this satellite

News about space launch
Brightness of first Chinese broadband constellation satellites alarms astronomers

The first satellites of a Chinese broadband constellation are significantly brighter than those of Western systems, posing a new challenge for astronomers.

News about space launch
Chinese rocket stage breaks up into cloud of more than 700 pieces of space debris

HELSINKI — A Chinese Long March 6A rocket’s upper stage has fragmented into a cloud of over 700 pieces of space debris, adding to concerns about long-term orbital safety. China […]

News about space launch
China's Thousand Sails Megaconstellation Kicks Off with Dangerous Debris Field

China's Thousand Sails Megaconstellation Kicks Off with Dangerous Debris Field


Newsletter sign-up

Weekly statistics, charts and insights to help you stay on top of the space industry.